When you browse on this site, cookies collect data to enhance your experience and personalize the content and advertising you see.
Visit our Privacy Policy to learn more. By continuing to use the site, you agree to this use of cookies and data.
  • In Hungary
  • List of Countries
  • For 7 days
  • Water Temperature
  • Weather Map
  • News
  • Weather Widgets
  • user-avatar
    Login

    Hourly Weather Serednii Babyn

    Today, 26 August, Monday

    Time Temperature Precipitation Wind Pressure Humidity
    00:00 +19°C° 0 mm 3 mps 745 mmHg 83%
    01:00 +18°C° 0 mm 3 mps 745 mmHg 84%
    02:00 +18°C° 0 mm 3 mps 745 mmHg 83%
    03:00 +18°C° 0 mm 2 mps 745 mmHg 84%
    04:00 +17°C° 0 mm 2 mps 745 mmHg 85%
    05:00 +17°C° 0 mm 2 mps 745 mmHg 86%
    06:00 +18°C° 0 mm 2 mps 745 mmHg 81%
    07:00 +20°C° 0 mm 3 mps 745 mmHg 76%
    08:00 +21°C° 0 mm 3 mps 745 mmHg 71%
    09:00 +24°C° 0 mm 3 mps 745 mmHg 65%
    10:00 +26°C° 0 mm 4 mps 745 mmHg 59%
    11:00 +28°C° 0 mm 4 mps 745 mmHg 53%
    12:00 +29°C° 0 mm 4 mps 745 mmHg 50%
    13:00 +30°C° 0 mm 4 mps 745 mmHg 46%
    14:00 +32°C° 0 mm 5 mps 745 mmHg 43%
    15:00 +32°C° 0.1 mm 4 mps 745 mmHg 45%
    16:00 +30°C° 0.1 mm 4 mps 744 mmHg 47%
    17:00 +30°C° 0.1 mm 4 mps 744 mmHg 49%
    18:00 +28°C° 0 mm 4 mps 744 mmHg 54%
    19:00 +26°C° 0 mm 4 mps 744 mmHg 60%
    20:00 +23°C° 0 mm 4 mps 744 mmHg 65%
    21:00 +22°C° 0 mm 3 mps 744 mmHg 66%
    22:00 +21°C° 0 mm 3 mps 744 mmHg 66%
    23:00 +20°C° 0 mm 3 mps 744 mmHg 67%

    Tomorrow, 27 August, Tuesday

    Time Temperature Precipitation Wind Pressure Humidity
    00:00 +19°C° 0 mm 3 mps 744 mmHg 68%
    01:00 +19°C° 0 mm 2 mps 744 mmHg 69%
    02:00 +18°C° 0 mm 2 mps 744 mmHg 70%
    03:00 +18°C° 0 mm 2 mps 744 mmHg 71%
    04:00 +17°C° 0 mm 2 mps 744 mmHg 73%
    05:00 +17°C° 0 mm 2 mps 744 mmHg 74%
    06:00 +18°C° 0 mm 2 mps 744 mmHg 71%
    07:00 +20°C° 0 mm 2 mps 744 mmHg 68%
    08:00 +21°C° 0 mm 2 mps 744 mmHg 65%
    09:00 +24°C° 0 mm 3 mps 744 mmHg 58%
    10:00 +26°C° 0 mm 3 mps 744 mmHg 52%
    11:00 +28°C° 0 mm 3 mps 745 mmHg 46%
    12:00 +29°C° 0 mm 3 mps 745 mmHg 43%
    13:00 +30°C° 0 mm 3 mps 744 mmHg 40%
    14:00 +31°C° 0 mm 3 mps 744 mmHg 37%
    15:00 +31°C° 0 mm 3 mps 744 mmHg 39%
    16:00 +31°C° 0 mm 3 mps 744 mmHg 42%
    17:00 +30°C° 0 mm 3 mps 744 mmHg 44%
    18:00 +28°C° 0 mm 3 mps 744 mmHg 50%
    19:00 +25°C° 0 mm 3 mps 744 mmHg 55%
    20:00 +22°C° 0 mm 3 mps 744 mmHg 61%
    21:00 +21°C° 0 mm 2 mps 744 mmHg 63%
    22:00 +20°C° 0 mm 2 mps 744 mmHg 65%
    23:00 +19°C° 0 mm 2 mps 744 mmHg 68%

    Day after tomorrow, 28 August, Wednesday

    Time Temperature Precipitation Wind Pressure Humidity
    00:00 +19°C° 0 mm 3 mps 744 mmHg 69%
    01:00 +18°C° 0 mm 3 mps 744 mmHg 69%
    02:00 +18°C° 0 mm 3 mps 744 mmHg 70%
    03:00 +17°C° 0 mm 3 mps 744 mmHg 71%
    04:00 +17°C° 0 mm 2 mps 744 mmHg 72%
    05:00 +17°C° 0 mm 2 mps 744 mmHg 73%
    06:00 +18°C° 0 mm 3 mps 744 mmHg 69%
    07:00 +20°C° 0 mm 3 mps 744 mmHg 66%
    08:00 +21°C° 0 mm 3 mps 744 mmHg 62%
    09:00 +24°C° 0 mm 3 mps 744 mmHg 56%
    10:00 +26°C° 0 mm 4 mps 744 mmHg 50%
    11:00 +28°C° 0 mm 4 mps 744 mmHg 45%
    12:00 +30°C° 0 mm 4 mps 743 mmHg 41%
    13:00 +32°C° 0 mm 4 mps 743 mmHg 37%
    14:00 +33°C° 0 mm 3 mps 743 mmHg 32%
    15:00 +33°C° 0 mm 3 mps 743 mmHg 35%
    16:00 +31°C° 0 mm 3 mps 742 mmHg 37%
    17:00 +31°C° 0 mm 3 mps 742 mmHg 40%
    18:00 +28°C° 0 mm 3 mps 742 mmHg 46%
    19:00 +26°C° 0 mm 3 mps 742 mmHg 52%
    20:00 +22°C° 0 mm 3 mps 742 mmHg 57%
    21:00 +21°C° 0 mm 3 mps 742 mmHg 58%
    22:00 +20°C° 0 mm 3 mps 742 mmHg 59%
    23:00 +19°C° 0 mm 3 mps 742 mmHg 60%

    29 August, Thursday

    Time Temperature Precipitation Wind Pressure Humidity
    00:00 +19°C° 0 mm 3 mps 742 mmHg 62%
    01:00 +18°C° 0 mm 3 mps 742 mmHg 65%
    02:00 +18°C° 0 mm 3 mps 742 mmHg 67%
    03:00 +17°C° 0 mm 2 mps 742 mmHg 70%
    04:00 +17°C° 0 mm 2 mps 742 mmHg 72%
    05:00 +16°C° 0 mm 2 mps 741 mmHg 75%
    06:00 +17°C° 0 mm 2 mps 741 mmHg 72%
    07:00 +19°C° 0 mm 3 mps 741 mmHg 68%
    08:00 +20°C° 0 mm 3 mps 741 mmHg 65%
    09:00 +22°C° 0 mm 3 mps 742 mmHg 59%
    10:00 +26°C° 0 mm 3 mps 742 mmHg 52%
    11:00 +28°C° 0 mm 4 mps 742 mmHg 46%
    12:00 +29°C° 0 mm 3 mps 742 mmHg 42%
    13:00 +30°C° 0 mm 3 mps 741 mmHg 37%
    14:00 +33°C° 0 mm 3 mps 741 mmHg 33%
    15:00 +31°C° 0 mm 3 mps 741 mmHg 35%
    16:00 +31°C° 0 mm 3 mps 741 mmHg 38%
    17:00 +31°C° 0 mm 3 mps 741 mmHg 40%
    18:00 +28°C° 0 mm 3 mps 741 mmHg 45%
    19:00 +26°C° 0 mm 3 mps 741 mmHg 50%
    20:00 +22°C° 0 mm 3 mps 741 mmHg 55%
    21:00 +21°C° 0 mm 2 mps 741 mmHg 56%
    22:00 +21°C° 0 mm 2 mps 741 mmHg 56%
    23:00 +20°C° 0 mm 2 mps 741 mmHg 57%

    30 August, Friday

    Time Temperature Precipitation Wind Pressure Humidity
    00:00 +19°C° 0 mm 2 mps 741 mmHg 58%
    01:00 +19°C° 0 mm 2 mps 741 mmHg 59%
    02:00 +19°C° 0 mm 1 mps 740 mmHg 60%
    03:00 +19°C° 0 mm 1 mps 740 mmHg 62%
    04:00 +18°C° 0 mm 1 mps 740 mmHg 64%
    05:00 +18°C° 0 mm 1 mps 740 mmHg 66%
    06:00 +19°C° 0 mm 1 mps 740 mmHg 63%
    07:00 +21°C° 0 mm 1 mps 740 mmHg 60%
    08:00 +22°C° 0 mm 1 mps 741 mmHg 56%
    09:00 +24°C° 0 mm 2 mps 741 mmHg 51%
    10:00 +26°C° 0 mm 2 mps 741 mmHg 46%
    11:00 +28°C° 0 mm 2 mps 741 mmHg 41%
    12:00 +29°C° 0 mm 2 mps 741 mmHg 39%
    13:00 +30°C° 0 mm 2 mps 741 mmHg 36%
    14:00 +31°C° 0 mm 2 mps 741 mmHg 33%
    15:00 +31°C° 0 mm 2 mps 741 mmHg 36%
    16:00 +31°C° 0 mm 3 mps 740 mmHg 39%
    17:00 +30°C° 0 mm 3 mps 740 mmHg 41%
    18:00 +28°C° 0 mm 3 mps 740 mmHg 48%
    19:00 +25°C° 0 mm 3 mps 741 mmHg 54%
    20:00 +23°C° 0 mm 2 mps 741 mmHg 61%
    21:00 +21°C° 0 mm 2 mps 741 mmHg 61%
    22:00 +20°C° 0 mm 2 mps 741 mmHg 62%
    23:00 +20°C° 0 mm 2 mps 741 mmHg 63%

    31 August, Saturday

    Time Temperature Precipitation Wind Pressure Humidity
    00:00 +19°C° 0 mm 2 mps 741 mmHg 62%
    01:00 +18°C° 0 mm 2 mps 741 mmHg 61%
    02:00 +18°C° 0 mm 2 mps 741 mmHg 60%
    03:00 +17°C° 0 mm 2 mps 741 mmHg 60%
    04:00 +17°C° 0 mm 2 mps 741 mmHg 60%
    05:00 +16°C° 0 mm 2 mps 740 mmHg 60%
    06:00 +18°C° 0 mm 2 mps 741 mmHg 58%
    07:00 +19°C° 0 mm 3 mps 741 mmHg 56%
    08:00 +20°C° 0 mm 3 mps 741 mmHg 53%
    09:00 +23°C° 0 mm 4 mps 741 mmHg 49%
    10:00 +26°C° 0 mm 4 mps 741 mmHg 44%
    11:00 +28°C° 0 mm 4 mps 741 mmHg 39%
    12:00 +29°C° 0 mm 4 mps 741 mmHg 37%
    13:00 +32°C° 0 mm 4 mps 741 mmHg 34%
    14:00 +33°C° 0 mm 4 mps 740 mmHg 32%
    15:00 +32°C° 0 mm 4 mps 740 mmHg 33%
    16:00 +32°C° 0 mm 4 mps 740 mmHg 35%
    17:00 +30°C° 0 mm 4 mps 739 mmHg 36%
    18:00 +28°C° 0 mm 3 mps 739 mmHg 40%
    19:00 +25°C° 0 mm 3 mps 739 mmHg 43%
    20:00 +22°C° 0 mm 3 mps 740 mmHg 47%
    21:00 +21°C° 0.1 mm 2 mps 740 mmHg 49%
    22:00 +20°C° 0.1 mm 2 mps 740 mmHg 52%
    23:00 +19°C° 0.1 mm 2 mps 740 mmHg 54%
    Show more